Location: Laterina
(43.5167°N, 11.7167°E)
Time: 13:55:09
(UTC+00:00)

Cosmos 2026 Rocket - Pass Details

Date: 23 January 2021
Orbit: 940 x 1000 km, 82.9° (Epoch: 28 February)

Event Time Altitude Azimuth Distance (km) Brightness Sun altitude
Rises 17:12:19 0° 158° (SSE) 3,602 6.9 -10.9°
Reaches altitude 10° 17:14:59 10° 150° (SSE) 2,668 6.2 -11.4°
Maximum altitude 17:20:24 34° 87° (E) 1,519 4.5 -12.3°
Drops below altitude 10° 17:25:53 10° 25° (NNE) 2,719 6.0 -13.3°
Sets 17:28:38 0° 17° (NNE) 3,680 6.7 -13.8°
